Regional Weather Roundup
Issued by NWS Charleston, WV

Home | Current Version | Previous Version | Text Only | Print | Product List | Glossary On
Versions: 1 2 3 4 5 6 7 8 9 10 11 12 13 14 15 16 17 18 19 20 21 22 23 24 25 26 27
000
ASUS41 KRLX 261910
RWRRLX
West Virginia Regional Weather Roundup
National Weather Service Charleston WV
300 PM EDT FRI MAY 26 2017

Note: "fair" indicates few or no clouds below 12,000 feet with no
significant weather and/or obstructions to visibility.

WVZ003-262000-
Northern Panhandle of West Virginia

CITY           SKY/WX    TMP DP  RH WIND       PRES   REMARKS
WHEELING       CLOUDY    64  54  69 W7        29.88S
$$

WVZ009-262000-
Northwest West Virginia

CITY           SKY/WX    TMP DP  RH WIND       PRES   REMARKS
PARKERSBURG    MOSUNNY   73  54  51 W16G26    29.92F
$$

WVZ006-262000-
Western West Virginia

CITY           SKY/WX    TMP DP  RH WIND       PRES   REMARKS
HUNTINGTON     PTSUNNY   75  55  49 W12       29.93F
$$

WVZ015-262000-
West Central West Virginia

CITY           SKY/WX    TMP DP  RH WIND       PRES   REMARKS
CHARLESTON     MOSUNNY   75  56  51 W9        29.93F
$$

WVZ022-031-262000-
North Central West Virginia

CITY           SKY/WX    TMP DP  RH WIND       PRES   REMARKS
CLARKSBURG     CLOUDY    67  54  63 W10       29.90S
MORGANTOWN     CLOUDY    68  51  54 W9        29.89S
$$

WVZ025-035-042-045-262000-
Southern West Virginia

CITY           SKY/WX    TMP DP  RH WIND       PRES   REMARKS
BECKLEY        MOSUNNY   69  50  50 NW17G23   29.99S
LOGAN            N/A     72  55  56 W9        29.97F
BLUEFIELD      CLOUDY    67  47  48 NW14G23   30.02S
LEWISBURG      PTSUNNY   68  48  48 W10G16    29.97S
$$

WVZ047-262000-
Northern Mountains of West Virginia

CITY           SKY/WX    TMP DP  RH WIND       PRES   REMARKS
ELKINS         CLOUDY    67  52  58 W17G24    29.93S
$$

WVZ052-262000-
Eastern Panhandle of West Virginia

CITY           SKY/WX    TMP DP  RH WIND       PRES   REMARKS
MARTINSBURG    CLOUDY    69  53  56 W17G23    29.79S
PETERSBURG     CLOUDY    73  56  55 NW12G22   29.87R
$$




USA.gov is the U.S. government's official web portal to all federal, state and local government web resources and services.